Regional Weather Roundup
Issued by NWS

Home | Current Version | Previous Version | Graphics & Text | Print | Product List | Glossary On
Versions: 1 2 3 4 5 6 7 8 9 10 11 12 13 14 15 16 17 18 19 20 21 22 23 24 25 26 27 28 29 30 31 32 33 34 35 36 37 38 39 40 41 42 43 44 45 46 47 48 49 50
000
ASUS45 KSLC 310910
RWRUT

UTAH REGIONAL WEATHER ROUNDUP
NATIONAL WEATHER SERVICE SALT LAKE CITY UT
200 AM MST SAT JAN 31 2015

UTZ001>011-023>025-311000-

NORTHERN UTAH

CITY           SKY/WX    TMP DP  RH WIND       PRES   REMARKS
BRIGHAM CITY   CLOUDY    41  31  69 N9        29.97F
HILL AFB       CLOUDY    40  30  68 E14       29.95S WCI  32
LOGAN          MOCLDY    34  31  88 CALM      30.01F
OGDEN          CLOUDY    38  33  82 W6        29.95F WCI  33
PROVO AIRPORT  CLOUDY    39  34  81 NW6       29.95S WCI  35
SALT LAKE CITY CLOUDY    40  36  86 W8        29.96S WCI  34
VERNAL         FOG       36  35  96 NE3       29.93F VSB 1/4
WENDOVER       CLOUDY    39  28  65 S7        30.01S WCI  34
HEBER CITY     MIX PCPN  32  32 100 CALM      29.97S
WEST JORDAN    CLOUDY    39  36  87 N8        29.96F WCI  34

$$

UTZ012>022-026-027-311000-

SOUTHERN/CENTRAL UTAH

CITY           SKY/WX    TMP DP  RH WIND       PRES   REMARKS
BLANDING       CLOUDY    32  32 100 NW5       29.99F WCI  27
BRYCE CANYON   CLOUDY    31  29  92 CALM      29.91F
CEDAR CITY     CLOUDY    36  35  96 NW3       29.89F
DELTA          CLOUDY    37  37  98 N10       29.93S WCI  30
HANKSVILLE     CLOUDY    37  37 100 CALM      29.95F
MILFORD        LGT RAIN  38  35  89 N10       29.91F WCI  31
MOAB/CYNLANDS  LGT RAIN  39  37  92 CALM      29.91F
PRICE          CLOUDY    35  33  92 CALM      29.91F FOG
ST GEORGE      CLOUDY    46  43  87 CALM      29.90S
KANAB            N/A     37  37 100 NE5       29.93F WCI  34

$$

REGIONAL REPORTS     COLORADO/ARIZONA

CITY           SKY/WX    TMP DP  RH WIND       PRES   REMARKS
CRAIG, CO      MIX PCPN  33  32  96 CALM      29.92F FOG
GRAND JUNCTION LGT RAIN  38  38 100 CALM      29.92R FOG
RIFLE          LGT RAIN  36  35  96 CALM      29.92S VSB 1
MONTROSE       CLOUDY    38  37  97 CALM      29.93F
CORTEZ         MIX PCPN  36  34  92 SW9       29.92F WCI  29
PAGE, AZ       NOT AVBL
GRAND CANYON   CLOUDY    38  37  97 CALM      29.89S
KINGMAN        CLOUDY    46  44  93 NE3       29.85F
FLAGSTAFF      LGT RAIN  36  34  92 SW5       29.88F WCI  32

$$

REGIONAL REPORTS    NEVADA/IDAHO/WYOMING

CITY           SKY/WX    TMP DP  RH WIND       PRES   REMARKS
LAS VEGAS, NV  CLOUDY    49  46  90 S8        29.83F
ELY            CLOUDY    33  32  96 N13       29.96F FOG     WCI  24
ELKO           PTCLDY    28  26  92 CALM      30.05S
POCATELLO, ID  CLOUDY    32  32 100 SW9       30.10S WCI  24
BURLEY         CLOUDY    34  30  85 SW8       30.10F WCI  27
EVANSTON, WY   CLOUDY    31  27  85 NE7       29.99F WCI  24
ROCK SPRINGS   LGT SNOW  28  25  88 N6        29.99F FOG     WCI  22
KEMMERER       CLOUDY    30  28  93 NE9       30.02R WCI  22

$$


USA.gov is the U.S. government's official web portal to all federal, state and local government web resources and services.